Reflectivity
-20 -20 -20 -20 -4 -14 10 11 13 14 11 -6 -20 -2 -12 13 -19 10 1 6 8 5 -20 -20 -20 -20 -20 -20 -20 -20 -20 -20 13 36 28 22 4 -17 -7 -20 -11 -20 17 3 31 22 8
-20 -20 -20 -20 6 -20 7 9 10 -12 13 6 13 -20 -17 4 10 -8 5 3 7 -17 -20 3 -20 -20 -20 -20 -20 -20 -20 -20 -18 31 20 10 5 -11 -20 10 -20 -20 15 20 22 8 -17
-20 -20 -20 -20 -20 -20 2 -16 13 11 14 10 12 -8 2 -20 -14 5 1 4 6 -20 -20 -20 -20 -20 -20 -20 -20 -20 -20 -20 -20 19 19 5 13 21 -18 -9 -20 -20 -18 -8 22 11 -14
-20 -18 -20 -20 -20 -20 7 3 13 11 10 10 14 13 9 12 -5 -5 14 5 9 -20 -20 -20 -20 -20 -20 -20 -16 -20 -20 -20 -16 27 5 8 1 -6 -19 -15 -4 12 4 -20 -20 -13 -20
6 5 -20 -20 -20 -20 3 -4 10 10 -12 14 15 13 11 5 12 -6 7 1 -1 -20 -20 -20 -20 -20 -20 -20 11 -20 -19 -17 -11 4 14 13 26 2 -7 7 -20 -10 -20 -20 -20 -10 -20
2 13 -20 -20 -20 -20 -3 8 7 13 11 15 0 13 11 8 12 5 -16 -20 -20 -20 -20 -20 -20 -20 -20 -20 15 -18 -20 -12 21 20 24 27 40 21 10 -13 -20 -20 -20 -20 -20 -20 3
-16 11 -10 -20 -20 -20 -12 4 12 9 12 17 14 13 12 12 5 10 -20 -20 -20 -20 -20 -20 -20 -20 -20 -8 1 -13 7 18 22 24 2 23 39 19 2 -20 -20 -20 -20 -20 -20 -20 -7
4 13 -5 -20 -20 -20 -13 8 16 10 14 16 14 17 12 12 16 11 -20 -20 -20 -20 -20 -20 -20 -20 -20 -20 -10 5 -20 -18 18 18 4 26 30 26 -13 -20 -20 -20 -20 -18 -20 -0 12
14 16 -14 -20 -20 -20 -2 1 5 14 17 13 18 16 9 14 10 -19 -20 -20 -20 -20 -20 -4 -6 -20 -20 1 -1 -1 22 35 19 1 3 31 25 6 -18 -1 -20 -20 -20 -20 -20 -20 -20
-1 13 -20 3 -20 -20 7 1 16 13 15 16 15 13 5 11 -20 -20 -20 -20 -20 -20 -20 -16 7 16 17 -12 -6 8 21 31 0 -15 36 32 16 -9 -20 -16 -20 -20 -20 -20 -20 -20 -20
17 6 7 -18 -20 -20 -7 3 16 17 13 13 15 13 15 8 -20 -20 -20 -20 -20 -20 -20 -10 12 9 -0 18 -19 -9 -20 -19 -20 5 26 27 -16 -20 -18 -4 -20 -19 -20 -20 -20 -20 -20
-1 -20 -20 -20 -20 -20 -20 -20 4 16 11 15 15 8 11 -20 -10 -20 -17 -18 -20 -20 -20 -3 11 12 21 12 -6 -2 9 -20 -20 -13 3 0 -20 15 -20 -11 -20 -20 -20 -20 -20 -20 -20
-12 -20 -20 -20 -20 -20 -20 -20 10 11 1 17 4 -10 -16 -20 -20 -19 -20 -17 -20 -20 -20 -19 -4 23 21 20 17 15 -0 -20 -20 -17 5 25 15 -7 -1 6 -20 -20 3 -14 1 -19 -20
-20 -20 -20 -20 -20 -20 -20 -20 -2 -18 0 3 -20 5 -20 -20 -20 -12 -13 -20 -20 -17 -0 6 5 -12 15 18 17 9 -2 -19 -20 -20 23 28 23 -8 -20 -20 -20 -19 -17 -20 -20 -20 -20
-20 -20 -20 -20 -20 -20 -20 -18 -20 -20 -5 -20 -20 -20 -20 -20 -15 -19 -18 -20 -19 -20 -11 -19 -20 -20 7 -11 18 18 18 -8 -20 -2 28 5 19 23 -20 -20 -20 -20 -20 -20 -20 -20 -20
-20 -20 -20 -20 -20 -20 -20 -20 -20 -20 -20 -20 -20 -20 -20 -10 -18 -15 -16 -20 -14 -20 -15 -20 -11 7 -1 -20 -4 26 26 -7 15 36 21 -19 1 -9 -6 -16 -20 -20 -20 -20 -20 -20 -20
-20 -6 -20 -20 -20 -20 -20 -20 -20 -20 -20 -20 -20 -20 -20 6 -20 -14 -15 -20 5 -20 -20 -20 -20 -1 17 12 -20 -12 10 0 20 29 5 -20 -20 11 -18 -11 -17 -20 -20 -20 -20 -20 -20
1 -20 -20 -20 -20 -20 -20 -20 -20 -20 -20 -20 -20 -20 -18 -20 -19 -15 2 -20 4 -15 -20 -20 -4 1 5 -13 -9 -13 -20 -20 -14 -20 -20 -20 -20 -20 -19 -20 -20 -20 -20 -20 -20 -20 -20
-20 -20 -20 -20 -20 -20 -20 -20 -20 -20 -20 -20 -20 -20 -2 -20 -20 -20 -2 -20 -20 -20 -20 -20 -20 -15 -19 -20 -20 -20 -20 -20 -20 -20 -20 -20 -20 -20 -20 -20 -20 -20 -20 -20 -20 -20 -20
-20 -20 -20 -20 -20 -20 -20 -20 -20 -20 -20 -20 -20 -20 -20 -2 -8 -20 -20 -20 -20 -20 -20 -20 -20 -20 -20 -20 -20 -20 -20 -12 -20 -20 -20 -20 -20 -20 -20 -20 -20 -20 -20 -20 -20 -11 -20
-20 -20 -20 -20 -20 -20 -20 -20 -20 -20 -20 -20 -20 -20 -20 -20 -20 -20 -20 -19 -20 -20 -20 -20 -20 -20 -20 -20 -20 -20 -20 -20 -20 -20 -20 -20 -20 -20 -20 -20 -20 -20 -20 -20 -20 -20 -20
-15 -20 -20 -20 -20 -20 -20 -20 -20 -20 -20 -20 -20 -20 -20 -20 -20 -20 -10 -20 -20 -20 -20 -20 -20 -20 -20 -20 -20 -20 -20 -20 -20 -20 -20 -20 -20 -20 -20 -20 -20 -20 -20 -20 -20 -20 -20
-6 -20 -20 -20 -20 -20 -20 -20 -20 -20 -20 -20 -20 -20 -20 -20 -20 -20 -20 -17 -4 -20 -20 -20 -20 -20 -20 -20 -20 -20 -20 -20 -20 -20 -20 -20 -20 -20 -20 -20 -20 -20 -20 -20 -20 -20 -20
5 -20 -10 -10 -20 -20 -20 -20 -20 -20 -20 -20 -20 -20 -20 -20 -20 -20 -20 -20 -19 0 -20 -20 -20 -20 -20 -20 -20 -20 -20 -20 -20 -20 -20 -20 -20 -20 -20 -20 -20 -20 -20 -20 -20 -20 -20
7 -20 -20 -14 -20 -20 -20 -20 -20 -20 -20 -20 -20 -20 -20 -20 -20 -20 -20 -20 -20 -6 0 -20 -20 -20 -20 -20 -20 -20 -20 -20 -20 -20 -20 -20 -20 -20 -20 -20 -20 -20 -20 -20 -20 -20 -20
-9 -20 -20 -20 -20 -20 -20 -20 -20 -20 -20 -20 -20 -20 -20 -20 -20 -20 -20 -20 -20 -20 -20 -20 -14 9 -20 -20 -20 -20 -20 -20 -20 -20 -20 -20 -20 -20 -20 -20 -20 -20 -20 -20 -20 -20 -20
-3 -15 -20 -20 -20 -20 -20 -20 -20 -20 -20 -20 -20 -20 -20 -20 -20 -20 -20 -20 -20 -20 -20 -20 -20 -20 -1 -20 -3 -20 -20 -20 -20 -20 -20 -6 -10 -20 -20 -20 -20 -20 -20 -20 -20 -20 -20
19 5 -20 -20 -20 -20 -20 -20 -20 -20 -20 -20 -20 -20 -20 -20 -20 -20 -20 -20 -20 -20 -20 -20 -20 -20 20 0 -15 -7 -20 -20 -20 -20 -20 -20 -20 -20 -20 -11 -20 -20 -20 -14 -20 -20 -20
11 -16 -20 -20 -20 -20 -20 -20 -20 -20 -20 -20 -20 -20 -20 -20 -20 -20 -20 -20 -20 -20 -20 -20 -20 -12 -20 14 -20 -19 -20 -20 -20 -20 -20 -20 -20 -20 -20 -20 -20 -20 -20 -20 -20 -20 -20
Wind_Speed
9 9 10 11 13 11 14 15 14 15 16 16 15 16 17 14 14 12 12 11 9 8 7 5 6 7 4 1 5 4 12 9 5 10 11 7 9 6 4 5 7 5 4 11 10 7 8
8 9 9 9 11 13 12 14 14 16 15 16 15 16 16 16 12 12 11 9 9 7 7 6 4 5 1 3 1 4 6 5 1 6 9 5 8 4 4 6 7 8 5 7 10 8 7
9 9 8 9 10 12 12 13 14 15 16 15 15 15 15 16 17 12 12 12 9 9 6 6 4 1 1 8 2 4 5 3 2 5 5 5 2 4 4 5 4 4 8 4 3 8 5
9 9 8 8 10 11 12 13 14 15 16 16 16 15 14 14 14 16 13 12 11 10 7 5 3 2 5 2 4 6 3 3 7 8 8 6 5 1 1 3 5 5 5 6 7 7 4
9 10 8 10 9 11 13 12 14 14 16 15 15 15 14 13 13 14 16 12 12 8 6 4 2 2 7 3 4 9 4 3 2 7 9 7 5 4 2 8 5 2 6 6 3 10 5
8 10 8 8 10 10 13 14 14 16 17 16 13 16 16 14 13 13 15 12 6 2 2 0 1 2 4 2 3 4 2 3 4 12 8 5 6 7 3 9 16 11 7 4 5 9 8
10 10 9 8 10 12 14 14 14 16 18 16 15 14 16 13 12 13 6 4 3 2 1 5 3 3 4 6 3 3 2 1 4 9 6 5 1 13 13 3 5 10 10 8 3 8 7
11 8 8 8 10 11 14 14 15 15 17 17 16 14 15 14 14 9 3 1 3 1 4 4 5 4 5 2 2 1 1 3 7 12 9 3 7 8 7 5 8 11 9 4 2 5 5
11 9 8 7 10 11 14 16 16 16 17 17 15 13 15 14 12 4 2 3 1 1 1 2 3 2 3 2 1 2 2 3 12 10 6 4 8 6 5 5 9 3 11 5 6 6 1
11 8 7 7 9 11 14 15 16 16 16 16 16 15 15 12 3 1 2 3 2 1 5 1 3 1 1 0 4 2 2 3 6 8 3 3 13 11 6 4 5 4 7 7 9 5 4
11 8 6 6 7 11 13 15 16 16 17 16 16 16 12 4 2 1 2 4 2 3 5 1 1 1 2 2 2 3 1 3 7 9 3 1 13 14 5 6 4 3 6 6 4 5 3
13 9 6 6 6 10 13 13 16 15 16 17 17 16 6 2 2 2 4 3 3 6 3 1 2 2 2 3 2 2 1 5 3 5 5 2 3 3 5 3 3 9 7 7 5 3 2
13 10 6 5 6 11 11 14 15 15 16 16 16 8 5 3 3 3 3 2 5 6 3 2 1 4 4 3 4 2 3 2 4 7 3 5 4 3 2 8 4 5 6 3 2 2 5
14 10 7 5 6 9 10 13 14 14 15 16 6 4 5 1 1 4 1 3 7 4 2 3 3 4 2 3 4 3 3 4 1 3 4 4 6 2 2 4 7 3 4 5 6 5 3
15 11 8 5 5 6 9 12 14 14 14 10 4 2 3 3 3 1 0 5 4 3 1 3 1 3 2 4 4 1 1 3 3 3 2 5 4 2 5 2 2 3 2 4 7 2 2
16 13 9 6 3 5 8 11 13 14 13 1 3 2 2 4 1 1 1 1 2 3 3 4 1 1 1 2 1 3 1 1 5 3 5 3 7 5 1 1 6 4 5 3 3 3 4
16 14 10 6 3 4 7 10 12 14 11 6 3 4 1 2 0 1 1 3 3 5 2 1 1 3 2 1 3 2 3 1 1 3 3 2 4 3 3 1 5 3 1 4 3 3 3
18 15 11 7 3 4 6 8 11 13 3 5 3 2 1 0 1 1 1 2 2 2 1 0 1 1 4 4 2 2 2 2 3 3 4 1 5 5 2 1 0 2 3 4 4 4 0
19 16 13 8 3 2 5 8 11 12 1 4 3 2 1 0 1 1 3 3 1 3 2 2 2 1 0 4 4 2 1 5 4 2 5 5 2 5 3 4 3 3 4 4 4 3 5
21 18 13 9 5 1 4 8 12 11 4 4 3 3 1 1 1 1 2 4 4 3 3 3 2 2 3 3 5 4 3 4 2 2 8 5 3 5 6 4 4 6 7 11 7 6 10
22 18 14 10 6 2 4 8 11 10 5 5 3 1 1 2 1 1 1 3 3 5 6 7 4 4 2 3 2 3 3 2 4 2 4 4 4 3 2 4 4 4 6 11 14 18 14
24 19 15 12 7 3 5 7 10 9 8 5 5 5 2 1 1 1 3 3 3 3 3 3 4 4 4 5 3 1 3 1 2 4 3 3 3 3 2 2 3 4 8 9 15 17 19
25 20 16 13 9 6 5 7 10 11 5 4 1 2 4 3 1 2 1 2 1 6 1 3 1 1 6 2 1 4 4 0 3 6 3 3 5 3 2 4 4 6 7 9 5 5 13
24 21 16 14 10 8 8 8 9 12 7 4 3 3 4 1 2 3 1 1 2 2 3 3 4 2 0 4 1 2 5 6 6 5 3 5 4 2 1 3 2 5 1 2 9 8 8
26 22 18 14 11 10 9 9 10 14 11 5 3 3 4 4 2 3 3 2 2 4 4 3 5 3 5 3 3 3 4 2 4 4 4 3 4 3 4 3 7 2 1 3 3 5 3
26 23 20 16 14 12 11 9 10 9 10 5 2 1 4 7 2 1 3 4 3 3 4 3 4 6 5 2 3 3 3 3 2 2 3 4 5 4 2 3 4 4 2 2 2 3 3
27 23 21 18 16 14 11 9 9 8 8 5 3 1 5 6 1 3 4 2 2 1 0 3 6 7 3 2 2 2 1 2 3 5 4 2 2 4 3 2 6 6 4 4 2 4 4
28 25 23 19 17 14 11 8 8 9 6 4 1 2 4 5 2 4 3 3 2 3 2 4 1 2 3 2 2 1 2 1 2 1 3 5 5 3 2 2 5 2 2 3 4 6 7
27 26 24 20 18 15 12 9 9 8 8 5 3 2 2 6 5 2 2 1 3 3 3 2 2 1 1 1 2 1 1 1 2 1 4 1 4 3 7 6 2 3 1 3 4 3 6
Wind_Direction
324 335 341 352 349 360 350 345 351 347 346 346 349 347 349 348 346 344 345 344 353 354 6 1 356 5 356 38 249 321 338 342 348 192 219 182 157 133 173 149 127 149 171 162 222 144 143
311 319 329 349 347 343 348 346 349 343 348 345 347 346 346 343 342 333 333 333 333 338 338 344 348 344 16 259 219 322 326 314 18 154 234 174 172 159 158 159 162 162 134 173 181 167 150
299 306 318 338 339 335 342 339 346 337 337 341 345 343 343 342 337 338 326 326 318 308 312 330 343 120 325 246 240 312 283 203 165 186 199 188 281 190 154 134 188 115 132 120 177 165 179
288 294 306 319 325 331 332 334 331 334 336 339 344 341 343 339 332 327 323 319 314 299 293 297 358 97 254 241 300 298 236 272 208 210 210 182 249 259 267 116 53 92 116 150 167 158 165
277 285 297 307 321 323 325 328 328 333 330 335 337 334 334 340 338 323 315 316 304 281 287 267 32 101 277 81 340 312 198 239 293 160 188 140 243 180 182 130 111 224 169 153 135 188 145
263 275 286 301 310 320 319 324 328 327 328 334 337 338 334 340 338 322 314 319 292 326 331 37 238 318 275 311 351 279 242 301 193 141 142 140 265 164 164 163 185 165 127 115 143 191 185
244 264 281 295 298 316 316 326 325 327 326 331 333 331 333 333 330 325 352 18 24 304 19 216 189 243 280 296 297 230 48 138 122 152 147 136 300 188 172 125 160 113 120 143 175 170 177
232 248 269 287 299 314 315 323 324 326 326 327 330 332 332 335 328 326 88 129 226 268 304 222 265 264 260 257 273 91 155 90 188 158 84 79 217 167 121 103 119 135 117 136 89 148 144
225 235 258 278 294 315 316 322 325 328 327 324 331 336 327 329 325 54 153 222 123 50 138 344 261 247 248 195 302 143 141 202 147 116 84 162 161 142 109 112 106 68 166 159 141 106 60
220 224 245 274 290 311 315 319 321 328 326 324 330 329 318 324 37 208 216 184 134 107 62 234 219 280 258 321 31 324 63 171 57 124 200 162 145 166 137 119 116 113 160 148 136 112 177
214 220 234 264 291 305 316 317 321 328 325 324 326 318 314 299 170 151 295 125 99 75 36 266 84 297 339 342 166 57 310 54 111 127 205 54 155 158 149 165 149 130 120 116 98 92 105
201 209 218 257 288 301 311 316 321 329 323 329 327 320 307 160 131 235 129 134 46 46 332 36 111 67 75 355 215 137 85 54 114 115 47 308 98 108 176 113 144 139 88 56 58 94 240
191 194 203 252 284 300 321 321 325 328 331 334 336 332 138 109 177 166 143 83 41 97 253 53 59 199 221 148 124 140 97 78 124 126 146 142 119 112 121 98 31 110 102 96 132 208 223
184 183 192 234 280 308 321 321 327 332 334 339 10 96 77 94 268 136 115 67 69 237 236 109 195 234 90 139 51 88 106 138 315 68 106 149 142 129 346 98 161 164 155 147 172 190 223
179 176 190 221 274 309 318 325 332 334 334 349 117 9 56 352 126 63 66 48 187 230 72 112 291 354 41 98 121 133 169 152 119 117 192 119 93 86 60 122 94 184 119 142 107 60 41
175 172 188 209 255 297 316 329 334 335 334 87 103 76 29 310 309 67 135 289 244 231 316 170 122 5 71 43 154 142 143 333 118 181 229 184 104 25 153 93 38 114 154 93 23 132 242
173 172 185 187 228 291 321 335 337 337 342 160 72 91 336 8 153 248 283 233 265 246 214 218 26 98 90 120 49 62 126 330 108 126 95 112 85 112 126 22 160 87 86 56 113 143 195
172 173 179 175 205 294 328 340 340 341 36 78 105 91 117 312 253 223 246 212 275 294 290 159 85 41 163 161 82 92 158 152 172 162 70 107 107 108 94 79 52 123 166 164 154 226 58
169 172 176 168 180 289 340 350 349 344 152 132 98 102 58 10 35 306 294 285 267 350 20 54 96 352 298 150 113 137 87 319 181 90 156 179 92 107 36 5 1 201 178 142 119 90 191
167 170 174 165 164 178 2 5 358 352 134 89 102 98 357 215 103 215 6 4 335 13 52 47 29 80 69 49 25 128 76 27 130 108 84 94 104 149 174 198 137 186 200 200 194 232 240
165 170 171 158 163 145 32 20 5 9 133 94 34 184 187 188 282 12 112 27 345 8 356 21 23 53 33 67 50 82 110 125 40 47 53 88 115 112 172 147 151 189 205 205 211 229 233
162 169 168 155 159 132 59 23 11 18 114 81 131 136 24 94 265 157 22 50 43 331 23 347 83 352 49 87 17 142 123 147 176 29 62 25 113 105 25 75 171 242 212 222 231 236 243
163 165 164 155 156 129 79 36 22 32 103 107 121 6 104 316 56 156 93 86 47 328 167 60 254 120 66 60 292 286 276 141 151 144 121 98 124 80 283 351 355 305 238 205 187 227 221
161 160 162 155 153 125 98 67 52 44 89 120 157 118 99 70 80 85 60 310 122 333 319 328 360 95 152 281 155 201 57 79 94 55 109 127 97 61 218 21 346 254 65 170 212 256 225
162 159 162 154 145 123 106 93 94 71 64 90 130 118 117 102 69 70 47 9 11 334 346 328 4 353 318 284 81 62 358 37 20 41 70 100 115 92 118 187 287 344 316 131 163 308 212
163 160 156 153 141 128 116 105 98 121 104 86 82 109 100 121 7 27 72 23 56 4 338 23 349 331 345 56 75 151 186 195 181 73 64 91 92 106 142 149 241 243 241 196 115 295 222
160 160 153 154 144 133 129 114 98 99 112 108 77 117 92 101 17 70 77 88 106 112 109 324 336 347 28 4 103 166 215 195 158 170 158 134 140 162 190 239 287 247 267 160 116 246 327
157 157 155 155 147 140 137 123 116 119 138 86 99 2 112 96 82 63 45 62 44 48 64 284 261 33 342 78 86 38 71 282 37 200 184 168 151 198 173 176 282 1 351 19 312 319 306
156 154 156 154 147 146 144 135 121 119 130 111 87 348 61 84 134 114 100 108 106 167 153 4 93 352 131 206 33 87 141 105 174 299 341 286 179 188 182 215 224 28 326 46 38 302 320